Location: Observatoire
(46.1952°N, 5.3391°E)
Time: 11:08:04
(UTC+02:00)

CUTE 1.7 + AOD 2 - Pass Details

Date: 29 April 2024
Orbit: 569 x 586 km, 97.8° (Epoch: 29 May)

Event Time Altitude Azimuth Distance (km) Brightness Sun altitude
Rises 04:13:42 0° 28° (NNE) 2,784 ? -19.6°
Reaches altitude 10° 04:16:26 10° 48° (NE) 1,879 ? -19.3°
Maximum altitude 04:19:16 18° 92° (E) 1,426 ? -19.0°
Drops below altitude 10° 04:22:04 10° 136° (SE) 1,867 ? -18.7°
Enters shadow 04:23:46 - 150° (SSE) 2,405 ? -18.5°
